Wind_Speed
15 18 20 21 20 20 20 20 21 21 21 22 24 27 28 29 28 27 26 25 24 23 22 21 21 21 20 20 19 19 19 19 18 17 17 17 16 14 13 11 10 10 9 9 8 8 8 8 7 7 6 5 5 5 4 4 4 4 5 5 5 6 6
14 15 18 20 20 19 19 18 18 20 21 20 21 24 27 28 28 28 27 26 25 24 23 22 21 21 20 20 20 19 19 19 19 19 18 18 17 15 14 13 12 12 11 10 10 10 9 9 8 7 7 6 5 5 4 4 4 4 4 4 4 4 5
14 15 17 19 20 19 18 18 16 16 18 20 20 21 23 26 27 28 28 27 26 25 24 23 22 21 20 20 20 20 19 19 20 20 19 18 18 17 16 15 15 14 14 13 12 11 11 10 10 9 7 7 6 5 4 4 4 3 3 3 3 3 3
12 13 15 16 18 18 19 20 19 17 17 18 20 20 19 20 22 25 26 27 26 26 25 24 22 21 21 21 21 21 20 20 19 19 19 19 19 18 18 17 17 16 15 14 13 13 12 11 11 10 9 8 6 5 5 4 4 3 3 3 2 2 2
11 11 13 15 16 18 18 19 20 21 20 19 19 19 19 19 19 20 23 25 26 26 25 24 23 22 22 21 21 20 21 20 20 19 20 20 21 20 20 19 18 18 17 16 15 14 13 12 11 11 10 9 8 7 6 5 4 4 3 3 3 3 2
10 11 13 14 15 16 15 15 16 19 20 19 18 18 20 20 20 20 20 22 24 26 26 25 25 23 22 22 21 20 20 21 21 21 20 21 22 22 21 20 19 19 19 18 17 16 15 13 13 12 11 11 9 8 7 6 6 5 4 4 4 4 4
7 11 13 14 14 15 15 14 13 13 15 16 17 17 18 20 22 23 22 22 22 23 25 26 26 25 24 23 22 21 20 20 21 21 21 21 22 22 22 22 21 20 20 20 19 18 17 15 14 13 13 12 11 10 9 8 7 6 6 5 5 5 5
6 9 12 14 15 16 17 16 14 13 13 15 16 16 17 20 23 24 25 25 24 23 23 25 25 25 25 24 24 23 22 21 21 21 22 22 22 22 23 23 23 22 21 21 20 19 19 17 16 15 14 13 13 12 11 10 9 8 7 7 7 6 6
5 6 9 13 15 17 18 19 17 16 15 15 16 17 19 21 23 24 25 25 24 23 22 23 24 24 25 25 25 25 24 23 22 22 22 23 23 22 22 23 23 24 24 23 22 21 20 19 19 18 16 15 15 14 13 12 12 11 9 9 9 8 8
5 5 5 10 14 16 17 18 17 17 16 16 17 18 19 19 20 22 23 22 21 21 20 21 22 24 25 26 26 26 26 25 24 24 23 22 22 22 22 23 23 24 25 25 24 23 22 22 21 20 19 18 16 16 15 14 14 13 12 11 11 10 10
5 5 4 5 11 15 16 16 16 16 16 16 16 17 18 17 17 19 20 19 19 19 19 20 21 23 24 25 26 26 27 26 26 25 25 24 23 22 22 23 23 24 25 25 26 25 25 24 24 23 21 19 18 17 17 16 16 15 15 14 14 13 13
4 5 5 3 5 10 14 15 15 15 15 16 17 18 18 17 17 19 18 17 18 18 18 19 19 21 23 24 25 26 27 27 27 27 26 25 24 24 23 23 24 24 25 25 26 26 26 27 26 26 24 22 20 19 19 19 19 18 17 17 16 16 15
5 4 4 2 2 5 8 11 13 14 15 16 17 18 18 17 18 19 18 19 21 21 20 21 21 22 23 24 25 26 26 27 27 27 27 27 26 26 25 25 25 25 25 25 26 26 27 27 27 27 26 25 24 22 22 22 21 21 20 19 19 18 17
6 4 1 2 2 4 5 7 10 12 14 16 17 18 18 18 19 19 19 22 25 24 23 23 24 23 24 24 26 26 25 26 27 27 27 27 27 27 27 27 27 26 26 26 26 27 27 27 27 27 27 27 27 26 25 25 25 24 22 21 21 20 20
3 4 4 4 4 5 7 7 9 10 13 15 17 18 19 19 19 20 20 23 25 25 24 24 24 24 25 25 25 25 24 25 26 27 26 27 28 29 29 29 29 28 28 27 27 28 28 28 28 28 28 28 28 29 29 29 28 26 25 23 23 22 22
1 1 3 4 4 6 8 9 9 11 13 15 16 17 18 18 19 20 21 23 25 26 26 25 25 25 25 25 24 24 25 25 25 26 27 27 28 29 29 30 30 30 30 29 29 29 29 29 29 30 30 30 29 30 31 31 30 28 27 26 25 25 25
1 4 4 0 3 5 7 8 10 12 14 16 17 17 17 18 19 19 21 23 24 25 26 27 26 26 25 24 24 24 25 26 26 26 27 27 28 29 30 30 31 31 31 31 31 31 30 31 31 31 31 31 31 31 32 32 31 30 29 29 28 27 27
3 4 6 6 3 2 4 6 8 10 13 15 17 17 18 18 18 19 21 22 23 24 25 26 27 27 25 24 24 25 26 27 27 26 27 27 28 29 30 31 32 32 32 32 32 32 32 32 32 32 32 32 32 33 33 33 32 31 31 31 30 30 29
6 5 4 5 6 5 4 3 4 5 6 9 13 15 18 19 19 20 21 22 23 23 24 25 25 25 25 24 25 26 26 27 28 28 28 28 28 29 30 31 32 33 33 33 33 33 33 33 33 33 33 34 34 34 34 33 32 32 32 32 31 31 31
7 8 7 6 5 5 6 5 4 1 1 0 4 7 9 13 16 18 20 23 24 24 24 22 20 22 24 24 24 25 26 27 28 29 30 30 30 31 31 32 32 33 33 34 35 35 35 34 34 34 34 34 34 34 34 34 33 32 32 32 32 32 32
8 8 9 9 8 6 5 4 5 4 1 3 2 2 2 3 7 10 14 18 21 23 23 21 21 22 24 23 23 24 25 26 28 29 30 30 31 33 33 34 34 33 33 34 35 35 35 35 35 35 34 34 34 34 35 34 33 32 32 32 32 32 33
12 11 11 11 11 11 9 6 6 6 3 0 1 4 5 4 3 2 4 9 14 18 20 19 21 24 24 23 23 24 24 25 26 27 29 30 31 33 34 34 34 34 34 35 35 36 36 36 36 36 35 34 34 35 35 34 33 33 32 32 32 33 34
16 15 14 14 14 14 14 12 10 9 6 4 2 0 3 4 5 4 3 3 10 16 18 19 21 23 25 25 23 23 24 25 24 26 29 31 32 32 33 35 35 35 35 37 37 37 37 36 36 36 35 35 35 35 34 33 32 32 32 32 32 34 35
19 18 17 17 16 16 16 16 16 14 12 10 7 5 3 1 3 4 4 1 5 10 14 16 18 22 25 25 23 24 26 27 26 27 30 33 34 34 35 36 36 36 37 38 39 39 39 38 37 36 36 36 36 36 35 33 32 32 32 32 33 34 35
20 21 20 20 19 18 18 18 18 18 18 16 14 11 9 6 3 1 1 0 3 5 8 11 14 17 21 24 24 26 27 28 29 29 30 32 34 34 35 36 36 37 38 40 41 41 40 39 38 37 36 36 36 36 35 34 32 32 32 32 32 33 34
22 22 23 23 22 21 21 20 20 20 21 21 21 18 16 13 10 6 4 4 5 5 5 7 11 13 16 19 23 27 28 29 30 31 32 33 34 34 35 36 35 36 38 41 42 42 41 41 40 38 37 36 36 35 35 33 32 31 31 31 32 33 33
26 25 25 25 26 26 24 23 23 23 23 24 25 24 22 20 17 14 10 8 8 8 5 5 8 10 10 13 19 25 29 30 30 32 34 36 36 34 34 34 34 34 36 39 41 42 42 41 41 40 38 36 35 35 34 33 32 31 31 31 32 32 33
29 29 28 28 28 29 29 28 26 26 25 25 27 27 26 25 24 21 17 13 12 12 10 7 8 9 9 9 13 19 24 28 31 33 36 38 37 34 32 31 31 31 33 36 40 42 42 42 41 40 38 37 36 35 33 33 32 31 31 31 31 32 33
31 31 30 30 30 31 32 32 31 29 28 27 27 29 29 29 27 26 24 21 17 16 16 13 10 11 11 9 10 14 17 21 26 31 33 33 34 34 33 31 30 31 32 34 38 40 41 41 40 40 38 37 36 35 33 32 32 31 30 31 31 31 32
33 33 33 32 32 33 34 35 34 33 31 30 29 29 30 31 30 29 29 28 24 21 21 19 16 15 15 12 10 11 13 15 19 24 28 29 30 31 33 32 33 34 31 28 30 34 38 39 38 38 38 37 36 35 34 32 31 29 29 29 30 30 30
36 36 36 35 34 34 36 37 36 35 34 33 32 31 31 32 33 32 31 31 30 27 25 25 22 20 18 16 14 12 11 11 13 18 23 27 27 28 30 32 35 33 28 23 23 27 32 33 33 34 34 35 35 35 34 32 30 28 28 29 29 29 28
37 38 39 38 37 37 37 38 38 37 36 36 36 35 34 33 35 36 34 34 35 34 32 30 29 27 23 21 19 17 15 12 11 12 17 21 23 25 29 33 36 34 28 23 21 21 24 26 27 29 30 32 33 33 32 32 31 29 28 28 28 28 28
35 37 39 40 40 40 39 40 39 38 37 36 37 39 38 36 36 37 37 37 37 38 38 36 34 33 30 27 24 22 19 17 14 12 12 14 17 21 26 31 34 34 32 27 23 21 22 24 24 25 26 27 28 28 30 32 32 31 30 30 29 29 28
32 34 36 38 40 41 42 42 41 40 39 37 36 38 40 39 38 37 38 39 39 39 40 40 39 37 35 33 31 27 23 20 19 17 15 13 13 15 19 23 27 30 31 30 27 26 25 24 24 24 23 22 22 23 26 29 30 31 31 31 30 29 29
29 31 32 34 37 39 41 43 43 42 41 39 37 37 38 39 40 39 39 39 39 40 40 40 41 41 39 37 36 34 30 26 23 22 20 17 14 12 14 17 21 25 28 29 30 31 30 27 25 24 23 23 23 23 24 25 25 26 27 27 29 29 28
30 30 30 31 34 36 38 41 42 43 43 41 39 38 38 38 39 41 41 40 40 40 40 39 41 43 43 41 40 39 37 33 29 25 23 22 19 16 14 15 17 22 26 27 29 33 35 33 28 24 24 25 26 25 25 24 23 24 25 26 28 29 28
32 32 31 31 32 34 36 38 40 42 43 43 42 41 40 39 39 41 42 41 41 40 40 40 40 41 43 44 44 43 42 39 36 31 27 26 25 21 17 16 16 19 23 25 26 29 34 37 35 29 26 26 26 25 25 25 25 27 28 29 30 31 31
34 35 34 34 34 34 36 37 38 40 41 42 43 43 42 41 39 40 42 43 43 42 41 40 40 40 42 44 46 47 46 43 41 38 32 29 29 26 21 19 17 17 19 23 25 27 30 35 38 35 30 27 27 26 26 26 27 30 32 33 34 34 34
Wind_Direction
231 237 236 236 233 225 220 221 220 215 206 204 206 209 211 213 215 216 215 214 213 213 211 207 207 209 210 208 206 204 201 197 196 201 208 210 207 203 199 194 188 187 186 183 185 186 185 183 184 185 186 196 208 209 201 183 162 142 130 125 122 118 114
219 228 232 233 234 232 226 221 223 221 213 207 204 207 210 212 215 216 216 215 214 215 215 211 209 210 212 212 210 207 205 201 198 200 206 211 210 208 206 202 197 194 193 191 192 194 195 193 193 192 191 198 207 213 214 204 187 165 148 138 129 122 114
215 219 223 226 228 230 229 225 225 225 218 211 206 206 209 211 213 215 216 216 215 216 216 214 210 210 212 213 213 211 209 206 202 202 206 211 213 211 210 209 204 201 200 199 199 200 201 201 200 198 197 202 208 213 219 220 211 191 174 165 152 137 116
216 215 215 218 219 221 224 225 228 230 225 217 212 210 209 210 212 215 216 217 217 217 217 215 213 211 212 213 214 214 213 211 207 204 205 211 215 215 213 212 209 207 205 205 206 207 208 208 207 204 202 204 208 212 217 222 222 211 198 195 191 183 148
215 207 206 208 209 212 216 219 225 231 233 230 224 218 215 212 211 212 215 216 217 218 218 218 216 215 214 215 215 215 215 215 212 209 207 210 215 217 216 214 212 210 210 210 211 212 214 215 214 211 208 206 207 211 215 218 218 214 208 213 218 219 211
221 210 205 207 208 207 207 211 220 229 234 235 233 227 222 219 215 210 210 213 215 216 216 217 217 216 215 217 217 216 216 216 216 214 211 210 213 217 218 218 216 213 213 215 216 215 216 218 219 218 215 211 209 209 212 215 217 215 209 213 222 230 232
234 221 213 211 214 211 206 203 207 215 220 225 232 232 227 226 222 215 210 207 209 213 215 217 217 216 216 216 217 217 216 217 218 218 216 214 214 216 217 219 219 218 216 218 219 218 218 219 221 222 220 217 211 209 211 214 217 219 215 216 221 228 235
247 233 222 215 216 216 212 209 205 203 203 211 223 228 229 230 228 225 222 214 207 205 208 214 219 220 219 218 217 217 216 216 218 220 221 219 217 215 216 219 220 222 221 221 222 222 222 221 221 222 222 220 216 213 212 213 216 219 218 218 222 227 234
258 245 228 217 217 217 214 212 209 205 201 202 214 222 226 230 232 234 235 228 216 208 205 207 214 220 222 222 220 219 219 218 218 220 223 223 221 218 217 218 220 223 225 225 225 226 226 225 224 223 223 221 220 218 218 217 217 219 219 220 222 225 230
278 268 238 216 215 217 216 213 210 208 204 200 209 222 226 228 231 234 235 231 223 216 213 210 208 213 218 221 223 222 221 220 220 221 223 224 224 222 221 220 221 223 225 227 228 229 229 230 229 228 226 223 221 222 222 223 223 223 222 224 225 226 227
303 297 283 226 214 216 218 217 211 211 211 205 207 220 228 229 228 228 230 231 226 222 221 217 210 209 212 217 222 224 224 223 222 222 223 223 224 224 224 224 223 223 224 227 230 231 231 232 233 233 231 227 224 224 225 227 227 228 227 227 229 230 230
335 317 320 304 234 218 216 217 214 214 220 220 214 217 225 229 225 223 225 227 226 224 222 219 214 212 213 214 218 222 225 226 225 225 224 225 225 225 225 226 225 225 225 227 230 232 233 233 234 236 236 233 230 228 229 231 232 232 232 232 233 233 233
24 347 324 322 280 244 228 220 215 216 222 228 227 224 225 227 225 225 221 214 215 220 220 217 215 215 216 217 218 219 221 224 227 228 228 228 228 227 227 227 227 226 225 227 229 232 234 235 235 236 237 237 236 234 233 235 237 236 236 237 238 238 237
50 55 109 213 244 249 242 233 225 221 221 226 231 233 231 227 224 225 220 212 214 220 220 216 215 214 216 219 220 218 219 221 224 228 230 231 231 231 230 229 229 229 228 227 228 230 233 235 236 237 237 238 238 238 237 238 238 238 238 239 242 243 243
53 87 123 171 210 211 210 226 237 236 232 229 229 232 234 232 226 223 221 218 218 222 223 220 218 217 217 218 218 218 219 220 222 224 228 231 233 233 232 231 231 232 231 230 229 230 232 234 236 237 237 237 238 238 239 240 239 239 239 241 243 245 246
290 329 115 142 176 197 201 208 216 226 236 237 235 233 234 235 231 225 222 221 220 223 225 224 221 220 221 221 220 218 219 220 221 222 224 228 232 234 235 234 233 233 234 233 233 232 232 233 235 237 238 238 238 238 239 240 240 240 241 242 243 245 246
253 276 289 233 155 178 191 199 203 209 220 229 237 240 239 239 239 234 229 226 225 224 226 226 224 224 224 224 224 222 220 220 220 219 221 224 229 232 235 237 236 235 235 235 236 236 234 234 235 236 238 239 239 240 240 241 241 241 242 243 244 245 246
170 248 277 295 289 210 188 192 194 197 205 214 224 233 239 241 243 243 239 234 230 228 228 228 228 229 227 223 222 223 222 221 220 220 221 223 225 229 233 236 238 238 237 237 237 238 238 238 237 237 238 239 240 241 242 243 243 243 243 244 244 245 247
192 206 234 276 293 291 278 240 199 187 195 207 210 216 226 231 236 243 245 241 236 233 232 234 234 233 230 224 221 222 222 222 222 222 222 223 225 227 229 232 235 237 239 239 239 238 239 239 240 240 240 241 242 243 244 245 244 244 244 245 245 246 247
213 215 219 227 256 290 298 293 285 269 69 164 209 209 220 225 228 237 243 246 245 239 235 238 241 237 230 226 226 226 225 225 225 225 224 224 224 227 229 230 231 233 236 239 240 241 240 240 240 241 242 243 243 244 245 246 246 245 245 246 246 247 247
233 227 227 226 236 259 275 292 296 288 28 47 32 27 357 257 233 231 235 241 247 247 244 241 239 236 232 232 234 232 229 228 229 229 228 227 227 229 231 232 231 232 234 237 240 242 242 243 243 242 242 242 244 245 246 247 247 247 247 247 247 247 248
250 246 243 237 238 241 241 256 276 269 250 177 63 43 27 8 345 279 234 224 229 241 247 242 237 236 236 236 237 236 233 232 233 231 229 229 229 229 231 234 234 234 235 237 239 241 242 243 245 245 244 244 244 245 245 246 247 248 248 248 249 249 249
258 257 255 250 247 244 243 247 251 254 257 255 241 100 32 21 22 29 37 189 211 229 241 243 241 239 237 236 238 238 235 234 235 233 230 231 231 229 230 233 235 235 236 238 239 241 242 243 245 247 247 246 246 246 246 245 246 247 248 248 249 250 250
262 261 258 256 253 251 251 250 246 245 249 252 251 249 252 324 24 36 41 115 206 226 238 241 241 240 238 236 235 237 237 236 235 234 232 232 233 232 230 230 231 233 236 238 240 241 242 243 244 245 245 246 247 247 247 246 244 245 246 246 247 248 250
262 263 263 260 255 252 252 254 254 251 248 247 249 252 255 259 264 315 6 268 211 219 232 232 227 229 232 232 230 232 236 238 238 238 237 236 235 234 233 230 228 229 232 235 238 241 243 243 242 242 243 244 245 246 248 247 245 244 244 244 245 247 248
256 259 263 264 262 258 252 251 255 258 257 254 251 248 251 254 257 262 270 263 242 224 217 217 217 222 228 231 231 232 233 235 239 240 240 238 237 235 234 233 232 230 231 233 235 238 242 243 242 242 242 242 243 245 247 249 247 246 245 244 244 245 246
252 252 254 258 262 264 260 255 254 256 259 261 259 254 250 248 252 257 259 257 248 238 223 209 213 222 230 235 236 234 232 232 236 240 241 241 241 239 236 235 236 236 236 236 235 235 237 239 241 242 241 241 243 244 247 250 249 247 245 244 243 244 244
252 250 249 250 253 258 260 260 258 256 257 259 262 261 256 249 248 251 253 253 249 244 241 230 219 221 229 241 243 240 236 234 234 238 243 245 248 247 241 237 240 242 242 242 239 236 236 237 238 240 241 241 242 244 248 251 250 246 244 243 242 242 243
253 251 249 248 248 251 254 256 257 257 256 255 258 261 261 257 250 247 248 249 249 249 246 238 233 236 240 247 250 246 244 242 240 241 245 249 251 249 243 242 246 247 246 244 241 238 238 239 240 242 242 242 242 245 249 252 249 244 242 241 240 241 242
263 259 254 250 248 248 250 252 253 254 255 254 254 255 259 260 256 250 247 245 246 251 252 245 241 246 251 253 254 252 254 259 257 252 248 248 249 247 244 247 250 248 244 245 244 241 239 241 244 246 245 244 244 246 250 252 247 242 240 239 238 239 241
271 269 265 260 255 252 251 251 250 249 251 252 253 252 253 256 258 255 252 248 244 246 253 253 248 248 253 257 258 257 262 271 275 268 255 247 243 242 245 250 254 251 245 240 241 242 239 239 243 246 246 246 246 247 250 250 245 241 239 238 238 239 241
274 273 271 269 264 260 257 255 253 250 247 247 250 251 250 252 255 256 256 254 248 245 249 254 254 251 253 257 257 257 261 267 271 268 263 257 248 240 240 246 254 257 253 240 233 235 238 238 242 246 248 248 247 247 248 246 243 240 238 237 238 240 241
274 273 272 272 270 267 263 260 258 256 252 248 247 248 249 249 251 253 255 256 254 249 247 250 254 254 253 255 256 254 256 263 263 252 250 261 259 246 239 240 246 252 254 249 240 237 237 239 242 244 246 247 248 247 245 244 243 242 241 240 241 242 242
275 273 271 271 271 270 268 265 262 259 257 254 249 247 247 247 246 249 251 254 256 256 250 247 249 253 254 256 257 256 255 261 266 258 245 245 254 256 252 248 247 250 252 250 247 245 243 240 238 238 239 242 244 245 244 242 242 243 245 246 247 248 248
280 277 273 271 270 270 269 268 266 263 260 257 253 249 247 245 243 244 246 249 252 256 255 249 246 247 251 255 258 258 257 258 264 264 253 239 235 248 262 264 261 258 254 248 244 245 248 246 239 235 236 238 238 240 240 237 235 238 245 250 252 254 254
283 281 278 275 273 271 270 269 268 266 263 259 256 252 248 245 242 240 242 244 246 250 253 252 248 245 245 249 254 259 259 257 259 263 257 243 234 237 249 259 264 263 259 250 240 239 244 247 243 237 236 239 240 240 240 236 231 232 237 242 245 247 247
285 283 282 280 277 275 273 271 269 267 264 261 258 254 250 245 241 239 239 240 242 244 247 250 250 247 243 242 247 254 258 257 257 260 257 247 241 242 244 245 252 260 261 256 246 238 238 241 244 241 237 238 238 237 239 240 236 232 232 233 236 238 237
283 283 283 282 281 279 277 276 272 269 265 262 259 257 253 248 243 239 238 237 238 240 242 244 247 249 247 242 241 246 253 256 257 259 257 248 244 250 253 246 242 248 257 260 255 247 238 235 238 240 237 236 239 239 240 243 241 237 235 234 234 236 235
Height
3166 3168 3170 3173 3175 3177 3179 3181 3183 3185 3188 3191 3193 3195 3197 3199 3201 3203 3205 3208 3210 3212 3213 3215 3217 3219 3221 3223 3225 3226 3228 3230 3232 3234 3235 3237 3238 3239 3241 3242 3243 3245 3246 3247 3248 3249 3250 3251 3252 3253 3253 3254 3254 3255 3255 3256 3256 3257 3257 3257 3257 3258 3258
3163 3165 3168 3170 3173 3176 3178 3180 3181 3183 3186 3189 3191 3194 3195 3197 3199 3201 3204 3206 3209 3211 3213 3214 3216 3218 3220 3221 3223 3225 3227 3229 3230 3232 3234 3235 3237 3238 3240 3241 3242 3243 3245 3245 3247 3248 3249 3250 3251 3252 3253 3253 3254 3255 3255 3256 3256 3257 3257 3257 3258 3258 3258
3161 3163 3165 3168 3170 3173 3176 3179 3180 3182 3184 3187 3189 3192 3194 3196 3198 3200 3203 3205 3207 3209 3211 3213 3215 3217 3218 3220 3221 3223 3225 3227 3229 3230 3232 3234 3236 3237 3238 3240 3241 3242 3243 3244 3246 3247 3248 3249 3250 3251 3252 3253 3253 3254 3255 3255 3256 3257 3257 3257 3258 3258 3258
3159 3161 3163 3166 3168 3170 3173 3176 3178 3180 3182 3185 3187 3190 3193 3195 3197 3199 3201 3203 3206 3207 3209 3211 3213 3215 3217 3218 3220 3222 3224 3226 3227 3229 3231 3233 3235 3236 3237 3238 3240 3241 3242 3244 3245 3246 3247 3248 3249 3250 3251 3252 3252 3253 3254 3255 3255 3256 3257 3257 3258 3258 3258
3158 3160 3162 3163 3165 3167 3170 3173 3176 3178 3180 3182 3185 3187 3190 3192 3195 3197 3199 3202 3204 3206 3208 3210 3212 3214 3215 3217 3219 3221 3222 3224 3226 3228 3229 3231 3233 3234 3236 3237 3239 3240 3241 3243 3243 3245 3246 3247 3248 3249 3250 3251 3252 3252 3253 3254 3254 3255 3256 3256 3257 3258 3258
3156 3158 3160 3162 3163 3165 3168 3171 3173 3176 3178 3180 3183 3185 3187 3189 3191 3194 3196 3199 3201 3203 3206 3208 3210 3212 3214 3216 3218 3219 3221 3223 3224 3226 3228 3229 3231 3233 3234 3236 3237 3238 3240 3241 3242 3243 3245 3246 3247 3248 3249 3250 3251 3251 3252 3253 3253 3254 3255 3255 3256 3257 3258
3155 3156 3158 3160 3162 3163 3165 3167 3170 3173 3176 3179 3181 3183 3184 3186 3188 3190 3192 3195 3198 3201 3204 3206 3208 3210 3211 3213 3216 3218 3219 3221 3223 3224 3226 3227 3229 3231 3233 3234 3235 3237 3238 3239 3241 3242 3243 3245 3246 3247 3248 3249 3250 3250 3251 3252 3252 3253 3254 3254 3255 3256 3257
3154 3155 3156 3158 3159 3161 3163 3164 3166 3169 3172 3175 3178 3180 3182 3184 3185 3186 3187 3190 3192 3196 3200 3204 3206 3208 3210 3211 3214 3215 3218 3219 3221 3222 3224 3225 3227 3229 3230 3232 3234 3235 3236 3238 3239 3240 3242 3243 3244 3246 3247 3248 3249 3249 3250 3251 3251 3252 3253 3253 3254 3255 3256
3152 3153 3155 3156 3157 3159 3161 3162 3164 3165 3168 3171 3174 3176 3179 3182 3184 3185 3185 3187 3189 3191 3195 3199 3203 3206 3208 3210 3211 3214 3215 3217 3219 3220 3222 3223 3225 3227 3228 3230 3232 3233 3234 3236 3237 3239 3240 3242 3243 3244 3245 3247 3248 3248 3249 3250 3250 3251 3252 3252 3253 3254 3254
3150 3152 3153 3154 3156 3157 3159 3160 3162 3163 3165 3167 3170 3173 3175 3179 3182 3184 3184 3187 3189 3190 3192 3195 3199 3202 3205 3207 3209 3211 3213 3215 3216 3218 3219 3221 3223 3225 3226 3228 3229 3231 3232 3234 3235 3237 3238 3240 3241 3242 3243 3245 3246 3247 3248 3248 3249 3250 3250 3251 3252 3252 3253
3150 3150 3151 3153 3154 3155 3157 3159 3160 3161 3162 3165 3168 3170 3172 3175 3178 3180 3182 3185 3188 3189 3190 3193 3196 3199 3202 3204 3207 3208 3210 3212 3214 3215 3217 3219 3221 3223 3224 3226 3227 3229 3230 3232 3233 3234 3236 3237 3239 3240 3241 3243 3244 3245 3246 3246 3247 3248 3249 3249 3250 3251 3251
3150 3150 3150 3151 3153 3154 3155 3157 3158 3159 3161 3163 3165 3167 3169 3171 3174 3176 3179 3181 3184 3186 3187 3190 3193 3196 3198 3201 3203 3206 3208 3209 3211 3213 3215 3217 3219 3221 3222 3223 3225 3226 3228 3229 3231 3232 3233 3234 3236 3237 3239 3240 3242 3243 3244 3245 3245 3246 3247 3248 3248 3249 3250
3150 3150 3150 3151 3152 3153 3154 3155 3156 3157 3159 3161 3163 3164 3167 3169 3171 3174 3176 3178 3180 3182 3184 3186 3189 3192 3194 3196 3199 3202 3204 3207 3209 3210 3212 3214 3216 3218 3220 3221 3222 3224 3225 3227 3228 3230 3231 3232 3233 3235 3236 3238 3239 3240 3241 3242 3243 3244 3245 3246 3246 3247 3248
3150 3150 3150 3151 3152 3153 3153 3154 3155 3156 3157 3159 3160 3162 3164 3167 3169 3171 3174 3176 3178 3180 3182 3183 3185 3188 3190 3193 3195 3198 3201 3204 3206 3207 3210 3212 3213 3215 3217 3218 3220 3221 3223 3224 3226 3227 3228 3230 3231 3232 3234 3235 3236 3238 3239 3240 3240 3241 3243 3243 3244 3245 3246
3152 3151 3151 3151 3151 3152 3152 3153 3154 3155 3156 3157 3158 3160 3162 3164 3166 3169 3171 3173 3176 3178 3180 3182 3184 3186 3188 3190 3192 3195 3198 3200 3202 3204 3207 3208 3210 3212 3214 3215 3217 3218 3220 3221 3223 3224 3226 3227 3228 3229 3230 3232 3233 3234 3236 3236 3237 3239 3240 3241 3242 3243 3243
3152 3152 3151 3151 3150 3151 3151 3152 3152 3153 3155 3156 3157 3158 3159 3161 3163 3166 3168 3170 3172 3174 3176 3179 3181 3184 3186 3188 3191 3193 3195 3196 3199 3201 3203 3205 3207 3209 3210 3212 3214 3215 3217 3218 3220 3221 3222 3224 3225 3226 3227 3228 3230 3231 3232 3233 3235 3236 3238 3238 3239 3240 3241
3151 3151 3151 3151 3151 3151 3151 3151 3152 3152 3153 3155 3156 3157 3158 3159 3161 3163 3165 3167 3169 3171 3173 3175 3178 3180 3183 3186 3189 3191 3192 3193 3195 3197 3199 3201 3203 3205 3207 3209 3210 3211 3213 3215 3216 3218 3219 3220 3221 3223 3224 3225 3227 3228 3229 3230 3232 3234 3235 3236 3236 3237 3238
3151 3151 3151 3151 3151 3151 3151 3151 3151 3152 3152 3153 3154 3155 3157 3158 3159 3161 3162 3163 3165 3168 3170 3172 3174 3176 3179 3182 3185 3186 3188 3190 3192 3193 3195 3197 3199 3201 3203 3205 3206 3208 3209 3211 3212 3214 3215 3217 3218 3220 3221 3222 3223 3224 3225 3227 3229 3231 3232 3232 3233 3234 3235
3150 3151 3151 3151 3151 3151 3151 3151 3151 3151 3151 3151 3152 3153 3155 3156 3157 3158 3159 3161 3163 3165 3167 3169 3171 3173 3176 3179 3181 3183 3185 3186 3188 3190 3192 3194 3195 3197 3198 3199 3201 3203 3205 3207 3208 3209 3210 3212 3214 3216 3217 3218 3220 3221 3222 3224 3226 3227 3228 3229 3230 3231 3232
3149 3150 3150 3151 3151 3151 3151 3150 3151 3151 3151 3151 3151 3152 3152 3154 3155 3156 3157 3158 3160 3162 3164 3166 3169 3172 3174 3175 3177 3179 3181 3183 3184 3186 3188 3189 3191 3192 3193 3195 3196 3199 3201 3202 3204 3205 3206 3208 3209 3211 3213 3214 3216 3217 3218 3220 3222 3224 3225 3226 3227 3228 3228
3148 3149 3150 3150 3151 3151 3151 3150 3150 3150 3150 3151 3151 3151 3152 3152 3153 3154 3155 3156 3158 3159 3161 3163 3166 3169 3171 3172 3173 3175 3177 3179 3180 3182 3184 3186 3187 3189 3190 3191 3193 3194 3196 3198 3199 3201 3203 3204 3205 3206 3208 3210 3211 3213 3214 3216 3218 3220 3221 3222 3223 3224 3225
3146 3147 3148 3149 3150 3150 3150 3150 3150 3150 3150 3150 3150 3151 3151 3152 3152 3153 3153 3154 3156 3158 3159 3161 3163 3165 3167 3168 3169 3170 3173 3175 3177 3178 3180 3182 3183 3185 3186 3188 3190 3191 3192 3193 3194 3196 3198 3200 3201 3203 3204 3206 3207 3207 3209 3211 3213 3215 3217 3218 3220 3220 3220
3144 3145 3146 3147 3148 3148 3149 3149 3149 3149 3149 3149 3150 3150 3150 3151 3152 3152 3152 3153 3154 3155 3156 3158 3160 3162 3163 3164 3165 3167 3169 3171 3173 3175 3176 3177 3179 3180 3182 3184 3186 3188 3189 3189 3190 3191 3193 3195 3197 3198 3200 3202 3202 3203 3204 3207 3209 3210 3212 3214 3215 3216 3216
3141 3142 3143 3144 3145 3146 3146 3147 3147 3147 3147 3148 3149 3149 3150 3151 3151 3152 3152 3152 3152 3153 3154 3155 3157 3158 3159 3160 3162 3164 3166 3167 3168 3170 3172 3173 3174 3175 3177 3178 3180 3182 3184 3185 3186 3187 3189 3191 3192 3193 3195 3197 3198 3199 3201 3202 3204 3205 3207 3209 3210 3211 3212
3138 3139 3139 3141 3142 3143 3144 3144 3144 3145 3145 3146 3147 3148 3149 3150 3150 3150 3150 3151 3151 3151 3152 3153 3154 3155 3155 3156 3158 3160 3161 3163 3164 3166 3167 3168 3169 3171 3172 3173 3175 3177 3179 3180 3182 3183 3185 3186 3187 3188 3190 3192 3194 3195 3196 3198 3200 3201 3202 3204 3205 3206 3207
3135 3136 3136 3136 3138 3139 3141 3142 3142 3142 3143 3143 3144 3145 3146 3148 3149 3149 3149 3150 3150 3150 3150 3151 3152 3152 3153 3154 3154 3155 3157 3158 3160 3161 3162 3163 3164 3165 3167 3169 3170 3172 3173 3175 3177 3179 3180 3182 3182 3184 3186 3188 3189 3191 3192 3194 3196 3197 3198 3200 3201 3202 3203
3132 3133 3133 3133 3134 3134 3136 3137 3139 3140 3140 3140 3141 3142 3143 3145 3147 3148 3148 3148 3149 3149 3149 3150 3150 3150 3151 3151 3151 3152 3153 3154 3155 3157 3157 3158 3158 3161 3163 3166 3168 3169 3170 3171 3173 3174 3176 3177 3178 3180 3182 3183 3185 3186 3188 3190 3192 3194 3195 3195 3196 3197 3198
3128 3129 3130 3130 3131 3130 3131 3132 3134 3136 3137 3138 3138 3138 3140 3141 3143 3145 3146 3146 3147 3147 3148 3148 3148 3148 3148 3149 3149 3149 3150 3150 3152 3153 3153 3154 3156 3159 3162 3164 3165 3166 3167 3167 3168 3170 3171 3173 3174 3176 3178 3179 3181 3182 3184 3186 3188 3189 3190 3191 3192 3193 3194
3123 3124 3125 3126 3127 3127 3127 3128 3129 3131 3133 3134 3135 3135 3136 3137 3138 3140 3142 3144 3144 3144 3145 3146 3146 3146 3146 3146 3146 3147 3147 3148 3148 3148 3149 3151 3154 3157 3160 3162 3162 3162 3162 3163 3164 3166 3168 3170 3172 3173 3174 3175 3177 3178 3180 3182 3183 3185 3186 3187 3188 3189 3189
3117 3119 3120 3121 3122 3123 3122 3123 3125 3126 3128 3129 3131 3132 3132 3133 3134 3136 3137 3139 3141 3142 3142 3143 3143 3143 3143 3143 3144 3144 3145 3145 3145 3145 3145 3148 3151 3153 3156 3159 3158 3156 3158 3160 3161 3162 3164 3167 3169 3170 3171 3172 3173 3175 3176 3178 3179 3181 3183 3184 3184 3185 3186
3111 3112 3113 3115 3117 3118 3117 3118 3119 3121 3123 3124 3125 3127 3128 3129 3130 3131 3133 3134 3136 3138 3139 3140 3140 3140 3140 3141 3142 3142 3142 3143 3143 3142 3142 3145 3147 3149 3152 3154 3153 3153 3156 3159 3159 3159 3161 3163 3165 3166 3168 3169 3170 3171 3173 3174 3176 3177 3179 3180 3181 3182 3183
3106 3106 3106 3108 3110 3111 3112 3112 3113 3116 3118 3119 3119 3120 3122 3124 3125 3126 3128 3129 3131 3133 3135 3136 3137 3138 3137 3138 3139 3140 3140 3140 3140 3139 3139 3141 3143 3144 3147 3150 3150 3150 3152 3154 3155 3156 3158 3160 3161 3163 3164 3165 3166 3167 3169 3170 3172 3174 3176 3177 3178 3179 3180
3100 3100 3101 3101 3102 3104 3105 3105 3107 3109 3111 3113 3114 3114 3115 3117 3119 3121 3123 3124 3126 3127 3129 3131 3133 3134 3135 3135 3135 3136 3137 3138 3138 3137 3137 3138 3139 3140 3142 3144 3146 3146 3146 3148 3150 3152 3153 3156 3157 3158 3159 3161 3162 3163 3164 3166 3167 3170 3172 3174 3175 3176 3176
3094 3095 3095 3095 3095 3096 3097 3098 3100 3101 3103 3106 3109 3109 3109 3111 3113 3115 3117 3119 3120 3121 3123 3125 3127 3129 3131 3131 3131 3132 3133 3134 3136 3137 3136 3135 3136 3137 3138 3139 3141 3141 3142 3143 3145 3147 3148 3150 3152 3154 3155 3156 3158 3159 3159 3161 3163 3165 3168 3170 3171 3172 3172
3090 3090 3090 3090 3090 3090 3090 3091 3092 3094 3096 3099 3102 3103 3103 3104 3107 3109 3110 3112 3114 3115 3117 3119 3121 3124 3126 3127 3127 3128 3129 3130 3132 3134 3135 3134 3134 3134 3135 3135 3137 3137 3138 3140 3141 3142 3144 3146 3147 3149 3151 3152 3153 3154 3154 3156 3158 3161 3164 3166 3167 3167 3168
3085 3085 3085 3085 3085 3084 3084 3084 3085 3087 3089 3091 3094 3096 3097 3098 3100 3102 3104 3106 3108 3109 3111 3112 3114 3117 3120 3122 3123 3124 3125 3126 3128 3130 3131 3132 3131 3131 3131 3132 3133 3134 3135 3136 3137 3138 3140 3141 3143 3145 3146 3147 3148 3149 3151 3152 3154 3156 3157 3159 3161 3162 3163
3080 3080 3080 3080 3080 3079 3079 3078 3079 3080 3082 3084 3086 3088 3090 3092 3093 3095 3097 3099 3101 3102 3104 3106 3108 3110 3113 3116 3118 3119 3120 3121 3123 3125 3127 3128 3128 3128 3127 3127 3129 3131 3132 3133 3133 3134 3135 3136 3138 3140 3141 3142 3144 3145 3147 3148 3150 3150 3151 3153 3154 3155 3156
3075 3075 3075 3075 3075 3074 3073 3072 3072 3073 3075 3077 3079 3081 3082 3084 3087 3089 3090 3092 3093 3095 3097 3099 3101 3103 3106 3109 3111 3113 3114 3115 3117 3120 3122 3124 3124 3124 3124 3123 3124 3126 3128 3129 3129 3130 3130 3131 3133 3135 3137 3138 3140 3141 3142 3144 3145 3146 3146 3148 3148 3149 3150